OPS 4682 DEB, 51496

Orbit data source: Space-Track

OPS 4682 DEB, 51496 is space debris in LEO originally from a launch on Sat, 03 Apr 1965 UTC launched from the Air Force Western Test Range (AFWTR). Debris objects in space refer to the collection of defunct objects orbiting the Earth. Examples of debris include non-operational satellites, rocket bodies, and fragments generated from explosions, collisions, or faulty payload assembly.

Loading next visibility...
Identifier
51496, 1965-027GG
Orbit
LEO
Country
Flag of USUS
Related business
Manufacturer
Unknown
Mission
Spacecraft
Bus & Motor
Unknown
Mass
Unknown
Launch date (UTC)
1965-04-03 (61 years ago)
Launch vehicle
Unknown
Launch site
Air Force Western Test Range (AFWTR)
Object type
Payload
Rocket body
Debris
Shape & HBR
Unknown
Radar Cross Section
Medium (>0.1 m² and <1 m²)

Expand to show TLE details & history
Last TLE update: 1 week ago

TLE from 1 week ago
0 OPS 4682 DEB
1 51496U 65027GG  26200.91767870  .00000837  00000-0  27891-2 0  9997
2 51496  90.2559   6.6649 0015495 243.8439 116.1089 12.99177257512841
Epoch: 2026-07-19T22:01Z
TLE epoch observation values (Epoch: 2026-07-19T22:01:27.439Z)
Latitude
-0.00005°
Longitude
98.59138°
Altitude
1,273.422 km
Speed
7.217 km/s
True Right ascension
00h 26m 39s
True Declination
0° 00' 00"
Sunlit
Object was in daylight at epoch
Visualization orbit readout
Latitude
Unknown
Longitude
Unknown
Altitude
Unknown
Speed
Unknown
Apparent Right ascension
Unknown
Apparent Declination
Unknown
Sunlit
N/A
Visualization observer readout
Local Sidereal Time
18:57:39
Azimuth
Unknown
Elevation
Unknown
Doppler factor
Unknown
Orbital elements
Apogee altitude
1,274.279 km
Perigee altitude
1,250.601 km
Semi-major axis
7,640.577 km
Eccentricity
0.00155
Inclination
90.2559°
RAAN
6.6649°
Arg. of periapsis
243.8439°
True anomaly
116.26821°
Mean anomaly
116.1089°
Eccentric anomaly
116.18857°
Mean motion
3.24978 °/min
Orbital period
110.78 mins
BSTAR
0.0027891
Loading maneuver chart data...
Computing Atmospheric mass density...
Loading historical data...
Loading historical data...
Loading historical data...
Loading historical data...
Loading historical data...
Loading historical data...
Loading historical data...

Documentation

Showing up to 5 results
|